DW9727 Weather Reports


Display with metric or nautical units.
time (UTC)temp
F
wind
direction
speed
MPH
gust
MPH
rain 1hr
in
rain 24hr
in
rain mn
in
humidity
%
barometer
mb
20260510223711 71 267 6.0 12.0 0.00 0.00 0.00 34 1019.4
20260510222711 71 267 7.0 14.0 0.00 0.00 0.00 33 1019.3
20260510221710 73 321 7.0 13.0 0.00 0.00 0.00 35 1019.3
20260510220710 74 312 4.0 12.0 0.00 0.00 0.00 32 1019.3
20260510215710 72 269 8.0 12.0 0.00 0.00 0.00 37 1019.4
20260510214711 71 245 7.0 12.0 0.00 0.00 0.00 35 1019.4
20260510213711 71 300 5.0 10.0 0.00 0.00 0.00 37 1019.4
20260510211711 72 266 10.0 16.0 0.00 0.00 0.00 37 1019.4
20260510210710 72 274 3.0 10.0 0.00 0.00 0.00 33 1019.6
20260510205710 72 277 8.0 14.0 0.00 0.00 0.00 39 1019.7
20260510204710 72 321 9.0 13.0 0.00 0.00 0.00 38 1019.8
20260510203710 73 261 8.0 15.0 0.00 0.00 0.00 35 1019.8
20260510200710 74 269 12.0 20.0 0.00 0.00 0.00 35 1020.1
20260510194711 75 26 5.0 17.0 0.00 0.00 0.00 35 1020.2
20260510193711 72 274 6.0 12.0 0.00 0.00 0.00 37 1020.2
20260510190711 72 318 6.0 18.0 0.00 0.00 0.00 32 1020.4
20260510185710 70 261 2.0 18.0 0.00 0.00 0.00 33 1020.6
20260510184711 70 240 3.0 13.0 0.00 0.00 0.00 37 1020.7
20260510183710 71 298 5.0 12.0 0.00 0.00 0.00 35 1020.7
20260510182711 72 298 10.0 15.0 0.00 0.00 0.00 45 1020.9
20260510181710 71 235 9.0 13.0 0.00 0.00 0.00 32 1020.9
20260510174710 70 261 7.0 17.0 0.00 0.00 0.00 35 1021.1
20260510173711 69 253 11.0 17.0 0.00 0.00 0.00 35 1021.2
20260510172710 69 244 7.0 14.0 0.00 0.00 0.00 34 1021.4
20260510171710 69 239 11.0 16.0 0.00 0.00 0.00 36 1021.4
20260510163710 67 246 8.0 13.0 0.00 0.00 0.00 35 1021.8
20260510162710 66 201 2.0 12.0 0.00 0.00 0.00 37 1021.9
20260510161711 66 220 5.0 12.0 0.00 0.00 0.00 36 1022.0
20260510160710 65 244 5.0 12.0 0.00 0.00 0.00 36 1022.0
20260510155710 64 200 2.0 12.0 0.00 0.00 0.00 35 1021.9
20260510153710 64 265 7.0 12.0 0.00 0.00 0.00 37 1021.8
20260510152710 63 240 6.0 10.0 0.00 0.00 0.00 36 1021.9
20260510151710 62 261 3.0 10.0 0.00 0.00 0.00 36 1021.8
20260510150711 62 195 6.0 12.0 0.00 0.00 0.00 38 1021.8
20260510144710 60 211 7.0 12.0 0.00 0.00 0.00 39 1022.0
20260510143710 59 205 8.0 12.0 0.00 0.00 0.00 39 1022.0
20260510142710 59 240 5.0 10.0 0.00 0.00 0.00 44 1022.0
20260510140711 56 227 3.0 8.0 0.00 0.00 0.00 46 1021.7
20260510135710 55 241 3.0 6.0 0.00 0.00 0.00 51 1021.7
20260510134710 53 294 4.0 7.0 0.00 0.00 0.00 51 1021.7
20260510132710 49 283 1.0 3.0 0.00 0.00 0.00 63 1021.5
20260510131710 47 306 1.0 3.0 0.00 0.00 0.00 65 1021.5
20260510130710 46 294 2.0 3.0 0.00 0.00 0.00 67 1021.4
20260510125710 44 296 2.0 3.0 0.00 0.00 0.00 70 1021.4
20260510124710 43 284 1.0 2.0 0.00 0.00 0.00 74 1021.4
20260510123710 41 272 1.0 3.0 0.00 0.00 0.00 73 1021.5
20260510122710 40 296 2.0 3.0 0.00 0.00 0.00 71 1021.6
20260510120711 39 278 0.0 0.0 0.00 0.00 0.00 72 1021.1
20260510115711 39 278 0.0 1.0 0.00 0.00 0.00 71 1021.0
20260510114711 39 278 1.0 1.0 0.00 0.00 0.00 71 1021.0
20260510113710 39 278 1.0 2.0 0.00 0.00 0.00 70 1020.8
20260510112710 39 278 1.0 2.0 0.00 0.00 0.00 70 1020.7
20260510111711 40 277 1.0 2.0 0.00 0.00 0.00 69 1020.9
20260510110710 40 318 1.0 2.0 0.00 0.00 0.00 70 1020.7
20260510105710 40 318 1.0 2.0 0.00 0.00 0.00 70 1020.4
20260510104711 40 276 0.0 0.0 0.00 0.00 0.00 71 1020.4
20260510103710 40 276 0.0 2.0 0.00 0.00 0.00 69 1020.3
20260510102711 40 276 0.0 2.0 0.00 0.00 0.00 69 1020.3
20260510100710 40 282 1.0 2.0 0.00 0.00 0.00 68 1020.1
20260510095710 40 283 1.0 3.0 0.00 0.00 0.00 68 1019.8
20260510093711 40 288 1.0 3.0 0.00 0.00 0.00 70 1019.6
20260510092711 40 313 1.0 3.0 0.00 0.00 0.00 70 1019.6
20260510091710 40 314 2.0 3.0 0.00 0.00 0.00 69 1019.5
20260510090711 40 295 1.0 2.0 0.00 0.00 0.00 67 1019.6
20260510085711 40 288 2.0 3.0 0.00 0.00 0.00 67 1019.6
20260510084710 40 304 1.0 2.0 0.00 0.00 0.00 66 1019.2
20260510082711 41 185 0.0 1.0 0.00 0.00 0.00 64 1019.0
20260510081711 41 185 0.0 0.0 0.00 0.00 0.00 64 1018.8
20260510080710 42 185 0.0 3.0 0.00 0.00 0.00 62 1019.0
20260510075711 43 22 0.0 0.0 0.00 0.00 0.00 59 1019.0
20260510074710 43 22 0.0 0.0 0.00 0.00 0.00 60 1018.9
20260510073711 44 22 0.0 0.0 0.00 0.00 0.00 59 1018.7
20260510072711 44 22 0.0 1.0 0.00 0.00 0.00 57 1018.9
20260510071710 45 22 0.0 2.0 0.00 0.00 0.00 58 1018.7
20260510065710 46 22 0.0 0.0 0.00 0.00 0.00 55 1018.5
20260510064711 46 22 0.0 2.0 0.00 0.00 0.00 56 1018.4
20260510063711 47 22 0.0 2.0 0.00 0.00 0.00 54 1018.3
20260510061710 49 22 0.0 0.0 0.00 0.00 0.00 49 1017.9
20260510060710 49 22 0.0 0.0 0.00 0.00 0.00 48 1017.9
20260510055711 50 22 0.0 2.0 0.00 0.00 0.00 47 1018.0
20260510054711 51 42 0.0 2.0 0.00 0.00 0.00 46 1018.0
20260510053710 51 38 1.0 2.0 0.00 0.00 0.00 45 1018.1
20260510051711 52 336 2.0 6.0 0.00 0.00 0.00 44 1017.5
20260510050710 53 10 3.0 8.0 0.00 0.00 0.00 44 1017.4
20260510045711 54 10 5.0 8.0 0.00 0.00 0.00 42 1017.1
20260510044710 54 32 5.0 13.0 0.00 0.00 0.00 42 1017.1
20260510043711 55 43 6.0 13.0 0.00 0.00 0.00 41 1016.8
20260510041711 55 353 5.0 12.0 0.00 0.00 0.00 42 1016.6
20260510040711 55 28 5.0 10.0 0.00 0.00 0.00 42 1016.6
20260510035711 56 13 3.0 10.0 0.00 0.00 0.00 42 1016.5
20260510034710 56 5 5.0 9.0 0.00 0.00 0.00 42 1016.4
20260510033711 56 36 3.0 9.0 0.00 0.00 0.00 42 1016.2
20260510031710 57 5 4.0 9.0 0.00 0.00 0.00 41 1015.6
20260510030710 58 3 3.0 9.0 0.00 0.00 0.00 41 1015.3
20260510025711 58 9 4.0 9.0 0.00 0.00 0.00 40 1015.2
20260510024711 59 0 4.0 9.0 0.00 0.00 0.00 40 1014.9
20260510022710 60 8 5.0 9.0 0.00 0.00 0.00 38 1014.4
20260510021711 61 327 5.0 13.0 0.00 0.00 0.00 37 1014.2
20260510015710 62 0 6.0 12.0 0.00 0.00 0.00 35 1013.7
20260510014710 63 3 5.0 9.0 0.00 0.00 0.00 34 1013.5
20260510013710 64 24 5.0 12.0 0.00 0.00 0.00 34 1013.1
20260510012710 65 17 6.0 13.0 0.00 0.00 0.00 34 1012.9
20260510011710 66 335 7.0 12.0 0.00 0.00 0.00 33 1012.7
20260510010710 66 0 7.0 13.0 0.00 0.00 0.00 33 1012.4
20260510005711 67 335 3.0 12.0 0.00 0.00 0.00 32 1012.2
20260510004710 67 5 5.0 13.0 0.00 0.00 0.00 31 1012.1
20260510003710 68 353 8.0 14.0 0.00 0.00 0.00 30 1012.0
20260510002710 68 26 8.0 17.0 0.00 0.00 0.00 30 1011.9
20260510000710 69 358 10.0 15.0 0.00 0.00 0.00 33 1011.5
20260509235711 69 11 5.0 12.0 0.00 0.00 0.00 37 1011.5
20260509234711 69 15 4.0 12.0 0.00 0.00 0.00 42 1011.3
20260509233711 67 0 6.0 10.0 0.00 0.00 0.00 43 1011.3
20260509231710 67 33 5.0 9.0 0.00 0.00 0.00 45 1011.4
20260509230711 67 0 2.0 7.0 0.00 0.00 0.00 45 1011.3
20260509225711 67 16 4.0 12.0 0.00 0.00 0.00 43 1011.4
20260509224710 67 330 5.0 9.0 0.00 0.00 0.00 44 1011.4